星链-1654 (STARLINK-1654 )

导读 | 星芒AI

STARLINK-1654 是 SpaceX Starlink 项目中的一颗低轨通信卫星,属于该星座的多个批次之一。该卫星于2023年发射,旨在为全球用户提供高速互联网服务。它运行在约550公里的近地轨道上,采用先进通信技术,支持宽带连接。Starlink 卫星群致力于改善偏远地区的网络覆盖,提升全球互联网接入的公平性与效率。STARLINK-1654 与其他 Starlink 卫星协同工作,确保网络的稳定性和连续性。

基本信息
目录编号:
46326
目录名称:
STARLINK-1654
国际标识:
2020-062B
轨道中心:
EARTH
卫星名称:
星链-1654
卫星全名:
星链-1654 (STARLINK-1654 )
卫星状态:
在轨 (已飞行1882 天)
发射日期:
2020-09-03 UTC
国别 :
美国 (US)
星等 :
--
轨道信息
数据来源 国际轨道数据
星历时间: 2025-10-29T20:00:03+0800
4小时前
查看轨道信息
半长轴: 6840.192km
偏心率: 0.0001738
轨道倾角: 53.053°
近地点辐角 79.145°
升交点赤经 244.286°
平近点角 69.798°
近地点: 460.868km
远地点: 463.246km
周期: 93.834分钟
每日圈数: 15.346184
详细信息
固有亮度:
5
最大亮度:
2.5
卫星平台:
Starlink V1.0
覆盖范围:
全球
运营商:
太空探索技术公司
运营商所在国:
美国
制造商(研发单位):
太空探索技术公司
制造商所在国:
美国
使用方式:
暂无
卫星简介
星链(Starlink)计划是由太空探索技术公司(SpaceX)提出的一个巨型低轨卫星互联网星座项目,计划在2019年至2024年间在太空搭建由约1.2万颗卫星组成的“星链”网络,其中1584颗将部署在地球上空550千米处的近地轨道,并从2020年开始工作。该卫星仍在工作。
2D轨道图
3D轨道图
轨道高度分析图
轨道倾角分析图
轨道综合分析图
查看轨道综合分析图